Hourly Weather Ruldab

Today, 17 May, Monday

Time Temperature Precipitation Wind Pressure Humidity
00:00 +6°C° 0 mm 5 mps 586 mmHg 51%
01:00 +6°C° 0 mm 5 mps 586 mmHg 52%
02:00 +6°C° 0 mm 4 mps 586 mmHg 53%
03:00 +6°C° 0 mm 4 mps 586 mmHg 57%
04:00 +6°C° 0 mm 4 mps 586 mmHg 59%
05:00 +7°C° 0 mm 4 mps 586 mmHg 61%
06:00 +8°C° 0 mm 4 mps 587 mmHg 62%
07:00 +11°C° 0 mm 4 mps 587 mmHg 58%
08:00 +13°C° 0 mm 3 mps 588 mmHg 54%
09:00 +16°C° 0 mm 3 mps 588 mmHg 50%
10:00 +17°C° 0 mm 4 mps 589 mmHg 47%
11:00 +18°C° 0 mm 4 mps 589 mmHg 45%
12:00 +19°C° 0 mm 4 mps 589 mmHg 43%
13:00 +19°C° 0 mm 4 mps 589 mmHg 41%
14:00 +19°C° 0 mm 3 mps 589 mmHg 40%
15:00 +19°C° 0 mm 3 mps 589 mmHg 39%
16:00 +18°C° 0.1 mm 3 mps 588 mmHg 46%
17:00 +15°C° 0.1 mm 4 mps 588 mmHg 53%
18:00 +14°C° 0.1 mm 4 mps 587 mmHg 61%
19:00 +12°C° 0.3 mm 4 mps 587 mmHg 65%
20:00 +11°C° 0.3 mm 4 mps 587 mmHg 68%
21:00 +9°C° 0.3 mm 5 mps 587 mmHg 72%
22:00 +8°C° 0 mm 4 mps 586 mmHg 70%
23:00 +8°C° 0 mm 4 mps 586 mmHg 68%

Tomorrow, 18 May, Tuesday

Time Temperature Precipitation Wind Pressure Humidity
00:00 +8°C° 0 mm 4 mps 585 mmHg 66%
01:00 +8°C° 0.2 mm 4 mps 585 mmHg 70%
02:00 +7°C° 0.2 mm 4 mps 584 mmHg 74%
03:00 +7°C° 0.2 mm 4 mps 584 mmHg 78%
04:00 +7°C° 0.1 mm 4 mps 584 mmHg 76%
05:00 +9°C° 0.1 mm 3 mps 585 mmHg 74%
06:00 +9°C° 0.1 mm 3 mps 585 mmHg 71%
07:00 +11°C° 0 mm 3 mps 586 mmHg 63%
08:00 +12°C° 0 mm 3 mps 586 mmHg 54%
09:00 +13°C° 0 mm 3 mps 587 mmHg 46%
10:00 +14°C° 0.1 mm 3 mps 587 mmHg 45%
11:00 +14°C° 0.1 mm 3 mps 587 mmHg 44%
12:00 +15°C° 0.1 mm 4 mps 587 mmHg 43%
13:00 +14°C° 0.4 mm 3 mps 587 mmHg 45%
14:00 +14°C° 0.4 mm 3 mps 587 mmHg 47%
15:00 +13°C° 0.4 mm 3 mps 587 mmHg 49%
16:00 +13°C° 0.4 mm 3 mps 587 mmHg 53%
17:00 +13°C° 0.4 mm 2 mps 587 mmHg 57%
18:00 +12°C° 0.4 mm 2 mps 587 mmHg 61%
19:00 +10°C° 0 mm 2 mps 587 mmHg 66%
20:00 +9°C° 0 mm 2 mps 587 mmHg 72%
21:00 +7°C° 0 mm 2 mps 587 mmHg 78%
22:00 +7°C° 0 mm 3 mps 587 mmHg 75%
23:00 +7°C° 0 mm 3 mps 586 mmHg 72%

Day after tomorrow, 19 May, Wednesday

Time Temperature Precipitation Wind Pressure Humidity
00:00 +5°C° 0 mm 3 mps 586 mmHg 69%
01:00 +5°C° 0 mm 3 mps 586 mmHg 65%
02:00 +5°C° 0 mm 4 mps 586 mmHg 61%
03:00 +5°C° 0 mm 4 mps 585 mmHg 58%
04:00 +6°C° 0 mm 4 mps 586 mmHg 57%
05:00 +7°C° 0 mm 4 mps 586 mmHg 57%
06:00 +8°C° 0 mm 4 mps 586 mmHg 57%
07:00 +11°C° 0 mm 4 mps 587 mmHg 53%
08:00 +13°C° 0 mm 4 mps 587 mmHg 48%
09:00 +16°C° 0 mm 3 mps 588 mmHg 44%
10:00 +16°C° 0 mm 3 mps 588 mmHg 43%
11:00 +17°C° 0 mm 3 mps 588 mmHg 43%
12:00 +18°C° 0 mm 3 mps 589 mmHg 42%
13:00 +18°C° 0 mm 3 mps 589 mmHg 42%
14:00 +18°C° 0 mm 3 mps 589 mmHg 42%
15:00 +18°C° 0 mm 4 mps 589 mmHg 42%
16:00 +17°C° 0.2 mm 3 mps 589 mmHg 50%
17:00 +14°C° 0.2 mm 3 mps 588 mmHg 58%
18:00 +13°C° 0.2 mm 3 mps 588 mmHg 66%
19:00 +12°C° 0.1 mm 2 mps 588 mmHg 72%
20:00 +10°C° 0.1 mm 2 mps 588 mmHg 79%
21:00 +8°C° 0.1 mm 2 mps 588 mmHg 85%
22:00 +8°C° 0.1 mm 2 mps 588 mmHg 86%
23:00 +8°C° 0.1 mm 2 mps 588 mmHg 87%

20 May, Thursday

Time Temperature Precipitation Wind Pressure Humidity
00:00 +8°C° 0.1 mm 2 mps 587 mmHg 88%
01:00 +8°C° 0 mm 2 mps 587 mmHg 88%
02:00 +7°C° 0 mm 2 mps 587 mmHg 88%
03:00 +7°C° 0 mm 3 mps 588 mmHg 88%
04:00 +8°C° 0 mm 3 mps 588 mmHg 85%
05:00 +8°C° 0 mm 3 mps 588 mmHg 81%
06:00 +9°C° 0 mm 3 mps 589 mmHg 78%
07:00 +10°C° 0 mm 3 mps 589 mmHg 68%
08:00 +11°C° 0 mm 3 mps 590 mmHg 58%
09:00 +13°C° 0 mm 3 mps 590 mmHg 47%
10:00 +14°C° 0 mm 4 mps 591 mmHg 47%
11:00 +14°C° 0 mm 4 mps 591 mmHg 47%
12:00 +15°C° 0 mm 4 mps 591 mmHg 47%
13:00 +17°C° 0 mm 4 mps 591 mmHg 46%
14:00 +17°C° 0 mm 4 mps 591 mmHg 46%
15:00 +17°C° 0 mm 4 mps 592 mmHg 45%
16:00 +16°C° 0 mm 3 mps 591 mmHg 50%
17:00 +14°C° 0 mm 3 mps 591 mmHg 56%
18:00 +14°C° 0 mm 3 mps 591 mmHg 61%
19:00 +12°C° 0 mm 3 mps 591 mmHg 64%
20:00 +11°C° 0 mm 4 mps 591 mmHg 66%
21:00 +8°C° 0 mm 4 mps 591 mmHg 69%
22:00 +8°C° 0 mm 4 mps 591 mmHg 67%
23:00 +8°C° 0 mm 4 mps 591 mmHg 65%

21 May, Friday

Time Temperature Precipitation Wind Pressure Humidity
00:00 +8°C° 0 mm 4 mps 590 mmHg 63%
01:00 +8°C° 0 mm 4 mps 590 mmHg 62%
02:00 +10°C° 0 mm 4 mps 590 mmHg 61%
03:00 +10°C° 0 mm 4 mps 590 mmHg 60%
04:00 +11°C° 0 mm 3 mps 591 mmHg 60%
05:00 +12°C° 0 mm 3 mps 591 mmHg 60%
06:00 +13°C° 0 mm 3 mps 592 mmHg 60%
07:00 +16°C° 0 mm 3 mps 593 mmHg 52%
08:00 +18°C° 0 mm 2 mps 593 mmHg 44%
09:00 +20°C° 0 mm 2 mps 594 mmHg 36%
10:00 +21°C° 0 mm 2 mps 594 mmHg 33%
11:00 +22°C° 0 mm 3 mps 594 mmHg 31%
12:00 +24°C° 0 mm 3 mps 594 mmHg 29%
13:00 +22°C° 0 mm 3 mps 594 mmHg 28%
14:00 +22°C° 0 mm 3 mps 594 mmHg 28%
15:00 +22°C° 0 mm 3 mps 594 mmHg 28%
16:00 +21°C° 0 mm 3 mps 594 mmHg 33%
17:00 +20°C° 0 mm 2 mps 594 mmHg 38%
18:00 +19°C° 0 mm 2 mps 593 mmHg 44%
19:00 +17°C° 0 mm 3 mps 593 mmHg 43%
20:00 +16°C° 0 mm 3 mps 593 mmHg 43%
21:00 +13°C° 0 mm 4 mps 592 mmHg 43%
22:00 +12°C° 0 mm 4 mps 592 mmHg 42%
23:00 +12°C° 0 mm 4 mps 592 mmHg 42%

22 May, Saturday

Time Temperature Precipitation Wind Pressure Humidity
00:00 +12°C° 0 mm 4 mps 592 mmHg 41%
01:00 +12°C° 0 mm 4 mps 591 mmHg 43%
02:00 +12°C° 0 mm 4 mps 591 mmHg 45%
03:00 +12°C° 0 mm 4 mps 591 mmHg 46%
04:00 +12°C° 0 mm 3 mps 591 mmHg 48%
05:00 +13°C° 0 mm 3 mps 592 mmHg 50%
06:00 +14°C° 0 mm 3 mps 592 mmHg 51%
07:00 +17°C° 0 mm 2 mps 593 mmHg 45%
08:00 +20°C° 0 mm 2 mps 593 mmHg 39%
09:00 +23°C° 0 mm 1 mps 594 mmHg 33%
10:00 +23°C° 0 mm 2 mps 594 mmHg 32%
11:00 +24°C° 0 mm 2 mps 594 mmHg 31%
12:00 +25°C° 0 mm 2 mps 594 mmHg 31%
13:00 +25°C° 0 mm 2 mps 593 mmHg 31%
14:00 +25°C° 0 mm 2 mps 593 mmHg 32%
15:00 +25°C° 0 mm 2 mps 593 mmHg 32%
16:00 +24°C° 0 mm 2 mps 593 mmHg 38%
17:00 +23°C° 0 mm 2 mps 592 mmHg 43%
18:00 +21°C° 0 mm 2 mps 592 mmHg 48%
19:00 +19°C° 0 mm 2 mps 591 mmHg 55%
20:00 +16°C° 0 mm 3 mps 591 mmHg 63%
21:00 +13°C° 0 mm 4 mps 591 mmHg 70%
22:00 +13°C° 0 mm 4 mps 590 mmHg 73%
23:00 +12°C° 0 mm 4 mps 590 mmHg 76%
Show more